Estación de Hornitos
Ultimos registro cada 15 minutos 60
| N° | Estación | Fecha / Hora | Temperatura | Humedad | Lluvia | Velocidad | Dirección | Radiación | Presion |
| 60 | Hornitos | 06-05-2026 15:00 | 28,1 | 12 | 0 | 0,9 | 19 | 476 | 1013,5 |
| 59 | Hornitos | 06-05-2026 14:45 | 28,1 | 12 | 0 | 0,9 | 337 | 506 | 1013,9 |
| 58 | Hornitos | 06-05-2026 14:30 | 28,2 | 11 | 0 | 0,4 | 339 | 534 | 1014,1 |
| 57 | Hornitos | 06-05-2026 14:15 | 28,1 | 10 | 0 | 0,9 | 41 | 561 | 1014,3 |
| 56 | Hornitos | 06-05-2026 14:00 | 28,4 | 10 | 0 | 1,8 | 345 | 577 | 1014,4 |
| 55 | Hornitos | 06-05-2026 13:45 | 28,3 | 10 | 0 | 1,8 | 354 | 190 | 1014,4 |
| 54 | Hornitos | 06-05-2026 13:30 | 28,4 | 10 | 0 | 1,3 | 16 | 49 | 1014,5 |
| 53 | Hornitos | 06-05-2026 13:15 | 28,2 | 11 | 0 | 0,4 | 19 | 86 | 1014,5 |
| 52 | Hornitos | 06-05-2026 13:00 | 28,1 | 11 | 0 | 2,2 | 62 | 128 | 1014,6 |
| 51 | Hornitos | 06-05-2026 12:45 | 27,8 | 10 | 0 | 3,6 | 68 | 134 | 1014,5 |
| 50 | Hornitos | 06-05-2026 12:30 | 27,6 | 11 | 0 | 1,8 | 87 | 83 | 1014,8 |
| 49 | Hornitos | 06-05-2026 12:15 | 27,4 | 10 | 0 | 0,9 | 14 | 207 | 1014,8 |
| 48 | Hornitos | 06-05-2026 12:00 | 26,8 | 11 | 0 | 0,4 | 325 | 60 | 1014,8 |
| 47 | Hornitos | 06-05-2026 11:45 | 26,1 | 13 | 0 | 1,3 | 75 | 169 | 1015 |
| 46 | Hornitos | 06-05-2026 11:30 | 25,7 | 14 | 0 | 0,9 | 28 | 599 | 1015,1 |
| 45 | Hornitos | 06-05-2026 11:15 | 24,8 | 16 | 0 | 0,9 | 28 | 580 | 1015,6 |
| 44 | Hornitos | 06-05-2026 11:00 | 23,9 | 17 | 0 | 1,3 | 71 | 555 | 1015,7 |
| 43 | Hornitos | 06-05-2026 10:45 | 23,4 | 20 | 0 | 0,4 | 287 | 529 | 1015,8 |
| 42 | Hornitos | 06-05-2026 10:30 | 22,7 | 22 | 0 | 0,9 | 25 | 501 | 1016 |
| 41 | Hornitos | 06-05-2026 10:15 | 22,1 | 23 | 0 | 0 | 147 | 469 | 1016,1 |
| 40 | Hornitos | 06-05-2026 10:00 | 21,2 | 25 | 0 | 0,9 | 59 | 438 | 1016,1 |
| 39 | Hornitos | 06-05-2026 09:45 | 20 | 28 | 0 | 0,4 | 71 | 378 | 1016,4 |
| 38 | Hornitos | 06-05-2026 09:30 | 18,9 | 32 | 0 | 0 | 115 | 338 | 1016,4 |
| 37 | Hornitos | 06-05-2026 09:00 | 16,9 | 37 | 0 | 0 | 233 | 301 | 1016,5 |
| 36 | Hornitos | 06-05-2026 08:45 | 14,4 | 46 | 0 | 0 | 124 | 253 | 1016,3 |
| 35 | Hornitos | 06-05-2026 08:30 | 11,9 | 52 | 0 | 0 | 84 | 223 | 1016,4 |
| 34 | Hornitos | 06-05-2026 08:15 | 8,6 | 63 | 0 | 0 | 239 | 139 | 1016,2 |
| 33 | Hornitos | 06-05-2026 08:00 | 7 | 62 | 0 | 0 | 239 | 40 | 1016,4 |
| 32 | Hornitos | 06-05-2026 07:45 | 6,7 | 61 | 0 | 0 | 239 | 19 | 1016,4 |
| 31 | Hornitos | 06-05-2026 07:30 | 6,4 | 62 | 0 | 0 | 239 | 16 | 1016,2 |
| 30 | Hornitos | 06-05-2026 07:15 | 6,5 | 62 | 0 | 0 | 239 | 9 | 1016 |
| 29 | Hornitos | 06-05-2026 07:00 | 6,7 | 60 | 0 | 0 | 239 | 0 | 1015,7 |
| 28 | Hornitos | 06-05-2026 06:45 | 6,9 | 60 | 0 | 0 | 239 | 0 | 1015,6 |
| 27 | Hornitos | 06-05-2026 06:30 | 6,8 | 60 | 0 | 0 | 239 | 0 | 1015,3 |
| 26 | Hornitos | 06-05-2026 06:15 | 6,8 | 61 | 0 | 0 | 239 | 0 | 1015 |
| 25 | Hornitos | 06-05-2026 06:00 | 6,7 | 60 | 0 | 0 | 239 | 0 | 1014,8 |
| 24 | Hornitos | 06-05-2026 05:45 | 7,2 | 59 | 0 | 0 | 239 | 0 | 1014,6 |
| 23 | Hornitos | 06-05-2026 05:30 | 7,2 | 59 | 0 | 0 | 239 | 0 | 1014,6 |
| 22 | Hornitos | 06-05-2026 05:15 | 7,3 | 60 | 0 | 0 | 239 | 0 | 1014,4 |
| 21 | Hornitos | 06-05-2026 05:00 | 7,4 | 60 | 0 | 0 | 239 | 0 | 1014,3 |
| 20 | Hornitos | 06-05-2026 04:45 | 7,8 | 59 | 0 | 0 | 239 | 0 | 1014,3 |
| 19 | Hornitos | 06-05-2026 04:30 | 8,2 | 58 | 0 | 0 | 239 | 0 | 1014,2 |
| 18 | Hornitos | 06-05-2026 04:15 | 8,6 | 59 | 0 | 0,4 | 239 | 0 | 1014,1 |
| 17 | Hornitos | 06-05-2026 04:00 | 8,3 | 59 | 0 | 0 | 239 | 0 | 1014,1 |
| 16 | Hornitos | 06-05-2026 03:45 | 8,7 | 58 | 0 | 0 | 219 | 0 | 1014,2 |
| 15 | Hornitos | 06-05-2026 03:30 | 8,2 | 60 | 0 | 0,4 | 243 | 0 | 1014,2 |
| 14 | Hornitos | 06-05-2026 03:15 | 8,7 | 57 | 0 | 0 | 16 | 0 | 1014,4 |
| 13 | Hornitos | 06-05-2026 03:00 | 8,7 | 57 | 0 | 0 | 256 | 0 | 1014,2 |
| 12 | Hornitos | 06-05-2026 02:45 | 8,8 | 58 | 0 | 0 | 256 | 0 | 1014,4 |
| 11 | Hornitos | 06-05-2026 02:30 | 9,3 | 57 | 0 | 0 | 256 | 0 | 1014,2 |
| 10 | Hornitos | 06-05-2026 02:15 | 9,7 | 57 | 0 | 0 | 256 | 0 | 1014,3 |
| 9 | Hornitos | 06-05-2026 02:00 | 10,1 | 57 | 0 | 0 | 258 | 0 | 1014,2 |
| 8 | Hornitos | 06-05-2026 01:45 | 10,2 | 58 | 0 | 0,4 | 260 | 0 | 1014 |
| 7 | Hornitos | 06-05-2026 01:30 | 10,3 | 58 | 0 | 0 | 261 | 0 | 1014,3 |
| 6 | Hornitos | 06-05-2026 01:15 | 10,5 | 59 | 0 | 0 | 264 | 0 | 1014,1 |
| 5 | Hornitos | 06-05-2026 01:00 | 10,2 | 57 | 0 | 0 | 188 | 0 | 1014 |
| 4 | Hornitos | 06-05-2026 00:45 | 10,4 | 58 | 0 | 0,4 | 241 | 0 | 1014 |
| 3 | Hornitos | 06-05-2026 00:30 | 10,9 | 59 | 0 | 0 | 237 | 0 | 1013,7 |
| 2 | Hornitos | 06-05-2026 00:15 | 11,1 | 59 | 0 | 0 | 237 | 0 | 1013,9 |
| 1 | Hornitos | 06-05-2026 00:00 | 11 | 59 | 0 | 0 | 237 | 0 | 1013,8 |